Location: Asheville, NC
(35.6000°N, 82.5500°W)
Time: 17:04:57
(UTC-05:00)

Vanguard 2 Rocket - Pass Details

Date: 08 December 2017
Orbit: 556 x 3326 km, 32.9° (Epoch: 20 January)

Event Time Altitude Azimuth Distance (km) Brightness Sun altitude
Rises 20:08:56 0° 229° (SW) 5,308 11.5 -34.2°
Reaches altitude 10° 20:11:59 10° 225° (SW) 4,625 11.0 -34.8°
Maximum altitude 20:25:47 57° 151° (SSE) 3,262 9.3 -37.6°
Enters shadow 20:28:20 54° 126° (SE) 3,446 9.3 -38.1°
